Flag for U.S.A. Weather past 2 weeks in Lynchburg, Virginia, U.S.A.

Now
72 °F

Heavy rain. Fog.


Feels Like: 70 °F
Forecast: 65 / 83 °F
Wind: 7 mph from North

Location: Lynchburg Regional Airport

Current Time: May 29, 2015 at 1:34:54 PM

Latest Report: May 29, 2015 at 12:54 PM


Visibility: 5 mi

Pressure: 30.25 "Hg

Humidity: 87%

Dew point: 68 °F

Location of LynchburgLocation

Historic Weather in Lynchburg — Graph

°F

Lynchburg temperature yesterday

Maximum temperature yesterday: 86 °F (at 1:54 PM)
Minimum temperature yesterday: 61 °F (at 6:00 AM)
Average temperature yesterday: 73 °F

Past Weeks' High & Low Weather Summary

 TemperatureHumidityPressure
High86 °F (May 28, 1:54 PM)100% (May 16, 12:54 AM)30.48 "Hg (May 16, 12:54 AM)
Low46 °F (May 23, 5:54 AM)29% (May 20, 4:54 PM)29.88 "Hg (May 19, 6:54 PM)
Average68 °F71%30.18 "Hg
* Reported May 14 11:54 AM — May 29 11:54 AM, Lynchburg, Weather by CustomWeather, © 2015

Note: Actual official high and low records may vary slightly from our data, if they occured in-between our weather recording intervals... More about our weather records

Advertising

Lynchburg weather history for previous 24 hours

 ConditionsComfort  
Time TempWeatherWind HumidityBarometerVisibility
11:54 AM
Fri, May 29
80 °FPartly sunny.No wind60%30.25 "Hg10 mi
10:54 AM80 °FPassing clouds.7 mph60%30.25 "Hg10 mi
9:54 AM76 °FSunny.No wind67%30.25 "Hg10 mi
8:54 AM74 °FSunny.No wind76%30.25 "Hg10 mi
7:54 AM70 °FSunny.No wind87%30.25 "Hg10 mi
6:54 AM65 °FClear.No wind97%30.23 "Hg10 mi
5:54 AM61 °FFog.No wind97%30.21 "Hg3 mi
4:54 AM61 °FClear.No wind100%30.19 "Hg7 mi
3:54 AM63 °FClear.No wind100%30.19 "Hg10 mi
2:54 AM63 °FClear.No wind100%30.19 "Hg10 mi
1:54 AM65 °FPassing clouds.No wind97%30.21 "Hg10 mi
12:54 AM65 °FClear.No wind94%30.21 "Hg10 mi
11:54 PM
Thu, May 28
65 °FClear.No wind97%30.22 "Hg10 mi
10:54 PM68 °FClear.3 mph87%30.21 "Hg10 mi
9:54 PM68 °FClear.No wind90%30.21 "Hg10 mi
8:54 PM69 °FPartly sunny.No wind87%30.20 "Hg10 mi
7:54 PM72 °FSunny.6 mph78%30.20 "Hg10 mi
6:54 PM78 °FPartly sunny.5 mph66%30.18 "Hg10 mi
5:54 PM78 °FSunny.6 mph66%30.16 "Hg10 mi
4:54 PM81 °FPassing clouds.6 mph60%30.17 "Hg10 mi
3:54 PM80 °FMostly cloudy.10 mph58%30.17 "Hg10 mi
2:54 PM83 °FMostly cloudy.5 mph50%30.18 "Hg10 mi
1:54 PM86 °FPassing clouds.7 mph42%30.19 "Hg10 mi
Weather by CustomWeather, © 2015

See weather overviewHow to use our weather pages